Regional Weather Roundup
Issued by NWS

Home | Current Version | Previous Version | Graphics & Text | Print | Product List | Glossary On
Versions: 1 2 3 4 5 6 7 8 9 10 11 12 13 14 15 16 17 18 19 20 21 22 23 24 25 26 27 28 29 30 31 32 33 34 35 36 37 38 39 40 41 42 43 44 45 46 47 48 49 50
000
ASUS43 KOAX 231010
RWRNE

WEATHER ROUNDUP FOR NEBRASKA
NATIONAL WEATHER SERVICE OMAHA NE
400 AM CST SUN NOV 23 2014

NOTES: SATELLITE DATA IS BEING USED TO AUGMENT CLOUD COVER ABOVE
       12000 FEET.
       "FAIR" INDICATES FEW OR NO CLOUDS BELOW 12,000 FEET WITH NO
       SIGNIFICANT WEATHER AND/OR OBSTRUCTIONS TO VISIBILITY.

  * THESE STATIONS DO NOT REPORT WEATHER SUCH AS RAIN...SNOW OR FOG.

NEZ001>004-019>022-054>056-231100-
NEBRASKA PANHANDLE

CITY           SKY/WX    TMP DP  RH WIND       PRES   REMARKS
SCOTTSBLUFF    MOCLDY    35  27  72 NW12      29.67R WCI  27
ALLIANCE       CLOUDY    38  21  50 NW17      29.63R WCI  28
CHADRON        CLOUDY    35  27  72 W13       29.65R WCI  26
KIMBALL        CLOUDY    34  26  70 N16G23    29.64S WCI  24
SIDNEY         CLOUDY    37  25  61 N18       29.64R WCI  27
$$

NEZ057>060-069>072-079>082-231100-
SOUTHWEST NEBRASKA

CITY           SKY/WX    TMP DP  RH WIND       PRES   REMARKS
NORTH PLATTE   CLOUDY    38  26  62 NW10      29.53R WCI  31
IMPERIAL       CLOUDY    47  29  49 NW23G31   29.57R
LEXINGTON      CLOUDY    35  31  85 CALM      29.47R
MCCOOK         CLOUDY    52  28  39 W9        29.49R
OGALLALA       CLOUDY    44  29  56 N25       29.57S
$$

NEZ005>010-023>029-035>040-094-231100-
NORTH CENTRAL NEBRASKA

CITY           SKY/WX    TMP DP  RH WIND       PRES   REMARKS
VALENTINE      CLOUDY    40  33  76 NW20G28   29.54R WCI  30
AINSWORTH      MOCLDY    40  34  79 NW22G29   29.52R WCI  30
BROKEN BOW     MOCLDY    52  31  44 NW20      29.45R
O`NEILL        CLOUDY    47  36  64 W21G26    29.41S
ORD            MOCLDY    35  32  88 VRB3      29.44R
THEDFORD       MOCLDY    41  34  76 NW23G33   29.54R
$$

NEZ041-046>049-061>064-073>077-083>087-231100-
SOUTH CENTRAL NEBRASKA

CITY           SKY/WX    TMP DP  RH WIND       PRES   REMARKS
AURORA         MOCLDY    51  49  95 S6        29.43F
HASTINGS       CLOUDY    50  46  86 S5        29.43F
HEBRON         CLOUDY    54  48  80 S9        29.47F
HOLDREGE       FOG       43  42  96 CALM      29.46S VSB 3/4
KEARNEY *      CLOUDY    45  43  93 SW6       29.47S
YORK           CLOUDY    50  50 100 S9        29.44F
$$

NEZ011>018-030>034-042>045-231100-
NORTHEAST NEBRASKA

CITY           SKY/WX    TMP DP  RH WIND       PRES   REMARKS
NORFOLK        MOCLDY    50  48  93 S9        29.42F FOG
ALBION         FOG       44  42  93 SE5       29.44S VSB 1/4
BLAIR          CLOUDY    54  51  89 S14       29.46F
COLUMBUS *     CLOUDY    50  46  87 S6        29.45F
FREMONT        CLOUDY    54  51  91 S8        29.46F
TEKAMAH        CLOUDY    53  50  89 S14       29.46F
WAYNE          CLOUDY    49  47  95 S9        29.43F
$$

NEZ050>053-065>068-078-088>093-231100-
SOUTHEAST NEBRASKA

CITY           SKY/WX    TMP DP  RH WIND       PRES   REMARKS
LINCOLN        CLOUDY    54  50  86 S12       29.47F
OMAHA EPPLEY   DRIZZLE   53  52  96 S9        29.50F
BEATRICE       CLOUDY    54  50  87 S9        29.49F
FALLS CITY     CLOUDY    54  52  93 S8        29.52F
NEBRASKA CITY  CLOUDY    53  52  96 S12       29.51F
PLATTSMOUTH    CLOUDY    53  49  88 S10       29.51S
$$

NEZ044-045-051>053-067-231100-
OMAHA AREA

CITY           SKY/WX    TMP DP  RH WIND       PRES   REMARKS
OMAHA EPPLEY   DRIZZLE   53  52  96 S9        29.50F
BLAIR          CLOUDY    54  51  89 S14       29.46F
FREMONT        CLOUDY    54  51  91 S8        29.46F
MILLARD        CLOUDY    54  52  91 SE6       29.49F
OFFUTT AFB     CLOUDY    54  50  87 SE7       29.50F
PLATTSMOUTH    CLOUDY    53  49  88 S10       29.51S
WAHOO          CLOUDY    53  49  87 S10       29.46F
$$



USA.gov is the U.S. government's official web portal to all federal, state and local government web resources and services.